Cumberland, WV

1:35 PM EDT on October 16, 2019 (GMT -0400)
Greater Cumberland Regional

Weather History for KCBE - September, 2019

Change the Weather History Date:

Saturday, September 21, 2019

  Actual Average (WUND) Record (WUND)
Temperature  
Mean Temperature 72 °F -  
Max Temperature 90 °F - - (-1)
Min Temperature 54 °F - - (-1)
Cooling Degree Days 7    
Growing Degree Days 22 (Base 50)    
Moisture  
Dew Point 60 °F    
Average Humidity 72    
Maximum Humidity 97    
Minimum Humidity 41    
Precipitation  
Precipitation 0.00 in - - ()
Sea Level Pressure  
Sea Level Pressure 30.26 in    
Wind  
Wind Speed 2 mph ()    
Max Wind Speed 10 mph    
Max Gust Speed -    
Visibility 10.0 miles    
Events      
Averages and records for this station are not official NWS values.
T = Trace of Precipitation, MM = Missing Value Source: Averaged Metar Reports

Daily Weather History Graph

Daily Weather History Graph

Search for Another Location

Airport or City:

Astronomy

Sep. 21, 2019 Rise Set
Actual Time 7:01 AM EDT 7:14 PM EDT
Civil Twilight 6:34 AM EDT 7:40 PM EDT
Nautical Twilight 6:03 AM EDT 8:12 PM EDT
Astronomical Twilight 5:30 AM EDT 8:44 PM EDT
Moon 11:51 PM EDT (9/21) 2:04 PM EDT (9/21)
Length of Visible Light 13h 06m
Length of Day
12h 12m
Waning Gibbous, 55% of the Moon is Illuminated
Sep 21
Waning Gibbous
Sep 21
Last Quarter
Sep 28
New
Oct 5
First Quarter
Oct 13
Full

Hourly Weather History & Observations

Time (EDT) Temp. Heat Index Dew Point Humidity Pressure Visibility Wind Dir Wind Speed Gust Speed Precip Events Conditions
12:00 AM 60.8 °F - 56.8 °F 87% 30.27 in 10.0 mi WSW 4.6 mph - N/A   Clear
12:40 AM 60.6 °F - 57.0 °F 88% 30.27 in 10.0 mi Calm Calm - N/A   Clear
1:00 AM 58.6 °F - 56.8 °F 94% 30.28 in 10.0 mi Calm Calm - N/A   Clear
1:20 AM 58.6 °F - 56.7 °F 93% 30.28 in 10.0 mi WSW 3.5 mph - N/A   Clear
1:40 AM 58.6 °F - 56.3 °F 92% 30.28 in 10.0 mi Calm Calm - N/A   Clear
2:00 AM 59.0 °F - 56.5 °F 91% 30.28 in 10.0 mi Calm Calm - N/A   Clear
2:20 AM 57.7 °F - 56.3 °F 95% 30.28 in 10.0 mi Calm Calm - N/A   Clear
3:20 AM 56.8 °F - 55.4 °F 95% 30.29 in 10.0 mi WSW 3.5 mph - N/A   Clear
3:40 AM 56.8 °F - 55.2 °F 94% 30.29 in 10.0 mi Calm Calm - N/A   Clear
4:00 AM 56.5 °F - 55.0 °F 95% 30.29 in 10.0 mi Calm Calm - N/A   Clear
4:20 AM 56.7 °F - 55.2 °F 95% 30.29 in 10.0 mi Calm Calm - N/A   Clear
4:40 AM 55.9 °F - 54.5 °F 95% 30.29 in 10.0 mi Calm Calm - N/A   Clear
5:00 AM 55.0 °F - 54.1 °F 97% 30.29 in 10.0 mi Calm Calm - N/A   Clear
5:20 AM 54.7 °F - 53.8 °F 97% 30.29 in 10.0 mi Calm Calm - N/A   Clear
5:40 AM 55.6 °F - 54.7 °F 97% 30.30 in 10.0 mi Calm Calm - N/A   Clear
6:00 AM 55.0 °F - 54.3 °F 97% 30.30 in 10.0 mi Calm Calm - N/A   Clear
6:20 AM 54.7 °F - 53.8 °F 97% 30.30 in 10.0 mi Calm Calm - N/A   Clear
6:40 AM 54.1 °F - 53.4 °F 97% 30.31 in 10.0 mi Calm Calm - N/A   Clear
7:00 AM 54.0 °F - 53.2 °F 97% 30.31 in 10.0 mi Calm Calm - N/A   Clear
7:20 AM 54.3 °F - 53.6 °F 97% 30.31 in 10.0 mi Calm Calm - N/A   Clear
7:40 AM 54.9 °F - 53.8 °F 96% 30.32 in 10.0 mi Calm Calm - N/A   Clear
8:00 AM 56.5 °F - 54.9 °F 94% 30.32 in 10.0 mi Calm Calm - N/A   Clear
8:20 AM 58.6 °F - 56.5 °F 93% 30.32 in 10.0 mi Calm Calm - N/A   Mostly Cloudy
8:40 AM 60.3 °F - 56.5 °F 87% 30.33 in 10.0 mi Calm Calm - N/A   Overcast
9:00 AM 60.3 °F - 56.1 °F 86% 30.33 in 10.0 mi Calm Calm - N/A   Mostly Cloudy
9:20 AM 62.4 °F - 56.8 °F 82% 30.33 in 10.0 mi Calm Calm - N/A   Mostly Cloudy
9:40 AM 63.3 °F - 56.7 °F 79% 30.32 in 10.0 mi Calm Calm - N/A   Scattered Clouds
10:00 AM 65.7 °F - 57.9 °F 76% 30.33 in 10.0 mi Calm Calm - N/A   Scattered Clouds
10:40 AM 68.7 °F - 58.5 °F 70% 30.31 in 10.0 mi Calm Calm - N/A   Mostly Cloudy
11:00 AM 72.0 °F - 59.4 °F 64% 30.31 in 10.0 mi WSW 3.5 mph - N/A   Scattered Clouds
11:20 AM 72.9 °F - 59.5 °F 63% 30.30 in 10.0 mi WSW 3.5 mph - N/A   Clear
11:40 AM 76.3 °F - 60.8 °F 59% 30.29 in 10.0 mi WSW 4.6 mph - N/A   Clear
12:00 PM 78.3 °F - 61.0 °F 55% 30.28 in 10.0 mi Calm Calm - N/A   Scattered Clouds
12:20 PM 80.2 °F 81.3 °F 61.7 °F 53% 30.27 in 10.0 mi Calm Calm - N/A   Scattered Clouds
12:40 PM 80.8 °F 81.8 °F 61.9 °F 52% 30.27 in 10.0 mi Calm Calm - N/A   Scattered Clouds
1:00 PM 82.8 °F 83.8 °F 63.0 °F 51% 30.26 in 10.0 mi WSW 3.5 mph - N/A   Scattered Clouds
1:20 PM 84.0 °F 85.2 °F 63.7 °F 50% 30.25 in 10.0 mi Calm Calm - N/A   Scattered Clouds
1:40 PM 84.9 °F 86.1 °F 63.9 °F 49% 30.24 in 10.0 mi WSW 3.5 mph - N/A   Mostly Cloudy
2:00 PM 87.4 °F 88.8 °F 64.4 °F 46% 30.23 in 10.0 mi WSW 5.8 mph - N/A   Scattered Clouds
2:20 PM 86.7 °F 88.1 °F 64.0 °F 47% 30.22 in 10.0 mi WSW 5.8 mph - N/A   Scattered Clouds
2:40 PM 87.4 °F 88.8 °F 64.0 °F 46% 30.22 in 10.0 mi Calm Calm - N/A   Scattered Clouds
3:00 PM 87.4 °F 88.5 °F 63.5 °F 45% 30.20 in 10.0 mi WSW 4.6 mph - N/A   Mostly Cloudy
3:20 PM 90.0 °F 91.0 °F 63.3 °F 41% 30.19 in 10.0 mi WSW 6.9 mph - N/A   Mostly Cloudy
3:40 PM 89.6 °F 90.4 °F 63.0 °F 41% 30.19 in 10.0 mi WSW 10.4 mph - N/A   Scattered Clouds
4:00 PM 89.4 °F 90.2 °F 63.1 °F 41% 30.18 in 10.0 mi WSW 10.4 mph - N/A   Mostly Cloudy
4:20 PM 87.8 °F 88.5 °F 62.6 °F 43% 30.18 in 10.0 mi WSW 9.2 mph - N/A   Scattered Clouds
4:40 PM 86.0 °F 86.6 °F 62.6 °F 45% 30.19 in 10.0 mi WSW 9.2 mph - N/A   Mostly Cloudy
5:00 PM 86.0 °F 86.6 °F 62.6 °F 45% 30.19 in 10.0 mi WSW 10.4 mph - N/A   Overcast
5:20 PM 85.3 °F 85.9 °F 62.1 °F 46% 30.19 in 10.0 mi WSW 4.6 mph - N/A   Overcast
5:40 PM 86.0 °F 86.6 °F 62.6 °F 45% 30.19 in 10.0 mi WSW 4.6 mph - N/A   Overcast
6:00 PM 85.6 °F 86.6 °F 63.1 °F 47% 30.19 in 10.0 mi WSW 4.6 mph - N/A   Mostly Cloudy
6:20 PM 85.5 °F 86.3 °F 63.0 °F 47% 30.19 in 10.0 mi WSW 4.6 mph - N/A   Scattered Clouds
6:40 PM 84.2 °F 85.0 °F 62.8 °F 48% 30.20 in 10.0 mi WSW 5.8 mph - N/A   Mostly Cloudy
7:00 PM 83.5 °F 84.3 °F 62.4 °F 49% 30.20 in 10.0 mi WSW 3.5 mph - N/A   Mostly Cloudy
7:20 PM 81.3 °F 82.5 °F 62.6 °F 53% 30.19 in 10.0 mi WSW 3.5 mph - N/A   Scattered Clouds
7:40 PM 77.2 °F - 62.6 °F 61% 30.20 in 10.0 mi Calm Calm - N/A   Clear
8:00 PM 77.9 °F - 62.1 °F 58% 30.19 in 10.0 mi WSW 3.5 mph - N/A   Scattered Clouds
8:20 PM 75.7 °F - 63.7 °F 66% 30.20 in 10.0 mi Calm Calm - N/A   Clear
8:40 PM 74.7 °F - 63.9 °F 69% 30.21 in 10.0 mi Calm Calm - N/A   Clear
9:00 PM 73.0 °F - 63.1 °F 71% 30.22 in 10.0 mi Calm Calm - N/A   Clear
9:20 PM 70.9 °F - 63.1 °F 76% 30.23 in 10.0 mi Calm Calm - N/A   Clear
9:40 PM 70.0 °F - 63.9 °F 81% 30.23 in 10.0 mi WSW 4.6 mph - N/A   Clear
10:00 PM 71.8 °F - 63.5 °F 75% 30.24 in 10.0 mi WSW 4.6 mph - N/A   Scattered Clouds
10:20 PM 71.1 °F - 63.5 °F 77% 30.24 in 10.0 mi WSW 3.5 mph - N/A   Mostly Cloudy
10:40 PM 68.7 °F - 63.7 °F 84% 30.24 in 10.0 mi Calm Calm - N/A   Scattered Clouds
11:00 PM 67.1 °F - 63.1 °F 87% 30.24 in 10.0 mi Calm Calm - N/A   Clear
11:20 PM 68.0 °F - 64.4 °F 88% 30.24 in 10.0 mi Calm Calm - N/A   Clear
11:40 PM 66.9 °F - 63.3 °F 88% 30.25 in 10.0 mi Calm Calm - N/A   Clear